Location: ???? ?????
(30.0052°N, 31.2891°E)
Time: 15:40:08
(UTC+00:00)

Hubble Space Telescope - Pass Details

Date: 27 September 2024
Orbit: 503 x 507 km, 28.5° (Epoch: 12 October)

Event Time Altitude Azimuth Distance (km) Brightness Sun altitude
Exits shadow 01:27:17 12° 123° (ESE) 1,560 3.5 -30.5°
Drops below altitude 10° 01:27:52 10° 116° (ESE) 1,695 3.8 -30.4°
Sets 01:30:43 0° 95° (E) 2,580 5.3 -29.8°
